This is the latest recevied weather packets stored in our database for station/object VK4AB-13. If no packets are shown the sender has not sent any weather packets the latest 10 day(s).
| Time | Temp. | Humidity | Pressure | Rain* | Wind** | Luminosity | Snow |
|---|---|---|---|---|---|---|---|
| 1788588471 | 31.67° C | 43% | 1013.7 hPa | 0 mm | - | 271 W/m² | - |
| 1788588171 | 32.22° C | 42% | 1013.7 hPa | 0 mm | - | 287 W/m² | - |
| 1788587871 | 32.22° C | 40% | 1013.7 hPa | 0 mm | - | 306 W/m² | - |
| 1788587571 | 32.78° C | 39% | 1013.7 hPa | 0 mm | - | 327 W/m² | - |
| 1788587271 | 33.33° C | 37% | 1013.7 hPa | 0 mm | - | 345 W/m² | - |
| 1788586971 | 33.33° C | 35% | 1013.8 hPa | 0 mm | - | 362 W/m² | - |
| 1788586671 | 33.33° C | 28% | 1013.8 hPa | 0 mm | - | 380 W/m² | - |
| 1788586371 | 33.33° C | 29% | 1013.9 hPa | 0 mm | - | 394 W/m² | - |
| 1788586071 | 33.33° C | 35% | 1013.9 hPa | 0 mm | - | 410 W/m² | - |
| 1788585771 | 33.33° C | 31% | 1013.9 hPa | 0 mm | - | 425 W/m² | - |
| 1788585471 | 33.89° C | 31% | 1013.9 hPa | 0 mm | - | 443 W/m² | - |
| 1788585171 | 33.33° C | 31% | 1013.9 hPa | 0 mm | - | 459 W/m² | - |
| 1788584871 | 33.33° C | 30% | 1014 hPa | 0 mm | - | 471 W/m² | - |
| 1788584571 | 32.78° C | 30% | 1014.1 hPa | 0 mm | - | 487 W/m² | - |
| 1788584271 | 32.78° C | 32% | 1014.2 hPa | 0 mm | - | 504 W/m² | - |
| 1788583971 | 32.22° C | 38% | 1014.2 hPa | 0 mm | - | 519 W/m² | - |
| 1788583671 | 32.22° C | 38% | 1014.2 hPa | 0 mm | - | 531 W/m² | - |
| 1788583371 | 32.22° C | 38% | 1014.3 hPa | 0 mm | - | 543 W/m² | - |
| 1788583071 | 32.22° C | 37% | 1014.3 hPa | 0 mm | - | 555 W/m² | - |
| 1788582771 | 32.22° C | 37% | 1014.5 hPa | 0 mm | - | 566 W/m² | - |
| 1788582471 | 32.22° C | 38% | 1014.5 hPa | 0 mm | - | 580 W/m² | - |
| 1788582171 | 31.67° C | 38% | 1014.6 hPa | 0 mm | - | 594 W/m² | - |
| 1788581871 | 31.67° C | 37% | 1014.6 hPa | 0 mm | - | 605 W/m² | - |
| 1788581571 | 32.22° C | 37% | 1014.7 hPa | 0 mm | - | 615 W/m² | - |
| 1788581271 | 32.22° C | 37% | 1014.7 hPa | 0 mm | - | 626 W/m² | - |
* Rain latest hour (hover to see other rain measurements)
** Current wind speed in m/s (hover to see current wind gust speed)